This demonstration page uses our WeatherBlox Daily Observations layout. Learn more.

Left ArrowRight Arrow

36.19886, -115.1175

Hourly Observations for December 5, 2015

Temp ( °F °C ) Dew Point ( °F °C ) Humidity (%) Winds ( mph kmh ) Pressure ( in mb ) Visibility ( mi km ) Precip ( " mm )
12:53 am 00:53 Clear 43 6.1 24 -4.4 47 47 NNE 6 9 30.28 1025 10 16 0.00 0.00
1:53 am 01:53 Clear 44 6.7 23 -5 43 43 N 6 9 30.30 1026 10 16 0.00 0.00
2:53 am 02:53 Clear 44 6.7 23 -5 43 43 NNW 10 17 30.31 1026 10 16 0.00 0.00
3:53 am 03:53 Clear 45 7.2 22 -5.6 40 40 WNW 5 7 30.32 1027 10 16 0.00 0.00
4:53 am 04:53 Clear 47 8.3 21 -6.1 36 36 NW 15 24 30.35 1028 10 16 0.00 0.00
5:53 am 05:53 Clear 42 5.6 19 -7.2 40 40 SSE 5 7 30.41 1030 10 16 0.00 0.00
6:53 am 06:53 Sunny 41 5 20 -6.7 43 43 NE 3 6 30.44 1031 10 16 0.00 0.00
7:53 am 07:53 Sunny 44 6.7 22 -5.6 41 41 NW 6 9 30.47 1032 10 16 0.00 0.00
8:53 am 08:53 Sunny 51 10.6 19 -7.2 28 28 WNW 7 11 30.48 1032 10 16 0.00 0.00
9:53 am 09:53 Sunny 54 12.2 18 -7.8 24 24 NNW 3 6 30.48 1032 10 16 0.00 0.00
10:53 am 10:53 Sunny 57 13.9 19 -7.2 23 23 ESE 3 6 30.48 1032 10 16 0.00 0.00
11:53 am 11:53 Sunny 58 14.4 17 -8.3 20 20 Calm 30.45 1031 10 16 0.00 0.00
12:53 pm 12:53 Sunny 58 14.4 18 -7.8 21 21 Calm 30.44 1031 10 16 0.00 0.00
1:53 pm 13:53 Sunny 59 15 19 -7.2 21 21 S 5 7 30.42 1030 10 16 0.00 0.00
2:53 pm 14:53 Sunny 60 15.6 18 -7.8 19 19 Calm 30.43 1031 10 16 0.00 0.00
3:53 pm 15:53 Sunny 59 15 18 -7.8 20 20 Calm 30.43 1031 10 16 0.00 0.00
4:53 pm 16:53 Clear 57 13.9 20 -6.7 24 24 Calm 30.44 1031 10 16 0.00 0.00
5:53 pm 17:53 Clear 54 12.2 21 -6.1 28 28 Calm 30.45 1031 10 16 0.00 0.00
6:53 pm 18:53 Clear 50 10 22 -5.6 33 33 WNW 6 9 30.46 1031 10 16 0.00 0.00
7:53 pm 19:53 Clear 47 8.3 22 -5.6 37 37 NW 5 7 30.46 1032 10 16 0.00 0.00
8:53 pm 20:53 Clear 47 8.3 20 -6.7 34 34 NW 5 7 30.45 1031 10 16 0.00 0.00
9:53 pm 21:53 Clear 44 6.7 20 -6.7 38 38 NNW 3 6 30.45 1031 10 16 0.00 0.00
10:53 pm 22:53 Clear 44 6.7 17 -8.3 34 34 NW 7 11 30.46 1031 10 16 0.00 0.00
11:53 pm 23:53 Clear 45 7.2 17 -8.3 33 33 NW 6 9 30.45 1031 10 16 0.00 0.00

Powered by AerisWeather